Powrót do katalogu

COSMOS 1275 DEB

AktywnyPO
NORAD 12767·DEBRIS·🇷🇺 Russia

Wystrzelony Jun 4, 1981 z Plesetsk Cosmodrome

Loading…

Następne Przeloty (najbliższe 24 godziny)

TLE

ŚwieżeSource: Space-Track

Epoka: Sep 14, 2026, 04:05 UTC

1 12767U 81053DL  26257.17032615  .00000722  00000-0  38397-3 0  9991
2 12767  82.9562  46.8262 0046735 214.0915 269.3745 14.11683906303957

Śledź COSMOS 1275 DEB w czasie rzeczywistym z AllMySat

Download on the App Store